ECMWFNIL_850_thetae_021.txt.gz
Theta_e
306 305 303 302 300 300 299 298 297 297 296 296 296 296 296 295 295 294 294 293 293 293 293 294 294 294 294 294 293 293 292 291 290 290 289 289 288 288 288 288 287 287
307 306 304 302 301 300 299 298 297 296 296 295 295 295 295 295 294 294 293 293 293 293 293 293 293 293 293 293 293 292 291 290 290 289 289 288 288 288 287 288 287 287
308 307 306 304 303 301 300 298 297 296 295 295 294 294 294 294 293 293 293 293 293 293 293 293 293 293 293 292 292 292 291 290 289 289 289 288 288 288 287 287 287 287
308 308 307 306 304 302 300 298 297 296 295 294 294 294 293 293 293 293 293 292 292 292 292 293 293 292 292 292 292 291 290 289 289 289 288 288 287 287 287 287 287 287
309 308 308 307 305 303 301 299 297 296 295 294 294 293 293 293 292 292 292 292 292 292 292 292 292 292 292 291 291 290 290 289 289 288 288 288 287 287 287 287 287 287
308 308 308 307 306 304 302 300 299 297 295 294 294 293 293 292 292 292 292 292 292 292 292 292 292 292 291 291 291 290 289 289 288 288 288 287 287 287 287 287 287 287
309 308 308 308 307 305 303 301 299 297 296 295 294 293 293 293 292 292 292 292 292 291 292 292 292 291 291 291 290 289 289 289 288 288 287 287 287 287 287 287 287 287
308 308 307 307 307 306 304 302 300 298 296 295 294 293 293 293 292 292 292 291 291 291 291 291 291 291 291 291 290 289 289 288 288 288 287 287 287 287 287 287 287 287
306 307 306 305 305 305 305 303 301 298 297 295 294 293 293 292 292 292 291 291 291 291 291 291 291 291 291 290 290 289 289 288 288 287 287 287 287 287 287 286 286 286
304 305 305 304 304 304 304 304 301 298 297 295 294 293 293 292 292 291 291 291 291 291 291 291 291 291 290 290 289 289 288 288 287 287 287 287 287 287 286 286 286 286
303 304 305 304 303 302 302 302 301 299 296 295 294 293 292 292 291 291 291 291 291 291 291 291 291 290 290 290 289 288 288 288 287 287 287 287 287 286 286 286 286 285
302 303 305 305 303 302 301 300 299 298 296 295 294 293 292 292 291 291 291 291 291 290 291 291 290 290 290 289 289 288 288 287 287 287 286 286 286 286 286 285 285 285
302 303 305 305 304 302 300 298 297 297 296 295 294 293 292 291 291 291 290 290 290 290 290 290 290 290 290 289 288 288 287 287 287 286 286 286 286 286 286 285 285 285
302 302 302 304 303 301 299 297 296 295 294 294 293 292 292 291 291 290 290 290 290 290 290 290 290 290 289 289 288 288 287 287 286 286 286 286 286 285 285 285 285 285
302 300 300 301 301 300 298 297 296 294 294 293 292 292 292 291 290 290 290 290 290 290 290 289 289 289 289 288 288 287 287 286 286 286 286 286 285 285 285 285 284 284
301 300 299 298 299 299 298 297 295 294 293 293 292 291 291 290 290 289 289 289 289 290 289 289 289 289 288 288 287 287 286 286 286 285 285 285 285 285 284 284 284 284
300 300 299 298 298 298 297 296 295 294 293 292 291 291 291 290 289 289 289 289 289 289 289 289 289 288 288 287 287 286 286 286 285 285 286 285 285 284 284 284 283 283
300 300 298 297 297 297 296 296 295 294 293 292 291 291 291 290 289 289 289 289 289 289 289 289 288 288 287 287 286 286 286 286 286 286 286 285 285 284 283 283 282 282
300 299 298 297 297 297 296 295 294 293 293 292 291 291 291 290 289 289 289 289 289 288 288 288 288 287 287 286 286 286 286 286 286 286 286 285 284 283 282 282 281 281
299 299 298 297 296 296 295 294 294 293 292 291 291 290 290 289 289 288 288 288 288 288 288 288 287 287 286 286 286 286 286 286 286 285 285 284 283 282 282 281 280 280
299 298 297 296 296 295 294 294 293 292 291 291 290 290 290 289 289 288 288 288 287 287 287 287 286 286 286 286 286 286 286 285 285 284 284 283 282 281 281 280 280 280
299 298 297 296 295 294 294 293 293 292 291 290 290 289 289 288 288 288 288 287 287 287 287 286 286 286 287 287 287 286 285 285 284 284 283 282 281 281 280 280 280 279
299 298 297 296 295 294 294 293 292 291 290 290 289 289 289 288 288 287 287 287 287 287 286 286 287 288 288 287 286 286 285 284 284 283 282 281 280 280 280 279 279 279
299 297 296 296 295 294 294 293 292 291 290 290 289 289 289 288 287 287 287 286 286 286 286 287 288 288 288 287 286 285 284 284 283 282 281 280 280 280 279 279 279 279
299 298 297 296 296 295 294 293 292 291 290 289 289 289 288 288 287 287 286 286 286 286 287 288 288 288 287 287 286 284 284 283 283 282 281 280 280 279 279 279 279 279
299 298 297 297 296 294 293 292 291 290 289 289 288 288 287 287 286 286 286 286 286 286 288 288 288 288 287 286 285 284 283 283 282 281 280 279 279 279 278 278 278 278

ECMWFNIL_850_thetae_024.txt.gz
Theta_e
306 306 305 305 305 305 306 306 304 303 302 301 301 300 300 299 298 297 296 295 295 294 294 294 293 293 294 294 294 294 294 294 294 294 295 295 295 295 293 291 290 290
307 306 306 306 305 305 305 306 306 304 303 302 301 300 299 298 298 297 296 295 295 294 294 293 293 293 293 293 293 294 294 294 294 294 294 295 295 294 293 291 290 290
307 307 307 307 307 306 305 305 305 305 304 302 301 300 299 298 297 297 296 295 294 294 293 293 293 293 293 293 293 293 293 294 293 294 294 295 295 294 292 291 290 289
308 308 307 307 306 305 304 303 304 305 305 304 303 301 299 298 297 296 296 295 294 294 293 293 293 293 293 293 293 293 293 293 293 294 294 294 294 293 291 290 290 289
309 308 308 307 306 304 303 303 303 304 305 306 305 303 301 299 297 296 295 294 294 294 293 293 293 292 292 292 293 293 293 293 293 293 294 294 294 293 291 290 289 289
309 308 308 307 306 304 304 304 304 303 303 304 305 304 303 300 298 296 295 294 294 294 293 293 292 292 292 292 292 292 292 293 293 293 293 294 293 292 291 290 289 289
309 309 308 307 306 305 304 304 304 302 301 301 302 303 303 301 299 297 295 295 294 293 293 293 292 292 292 292 292 292 292 292 292 293 293 293 292 291 290 289 289 288
309 309 308 307 306 305 305 304 304 303 301 300 300 301 301 300 299 298 296 295 294 293 293 293 292 292 292 292 292 292 292 292 292 292 293 293 292 291 290 289 289 288
309 309 308 307 306 306 305 305 304 303 301 300 299 300 299 298 297 297 296 295 294 293 293 292 292 292 291 291 291 292 292 292 292 292 292 292 291 290 290 289 288 288
309 309 308 307 307 306 306 305 304 302 301 300 298 298 298 297 296 295 295 295 294 293 293 292 292 291 291 291 291 291 291 291 291 292 292 292 291 290 289 289 288 288
309 309 308 308 308 307 306 306 304 303 302 300 298 297 297 297 295 294 294 294 294 293 292 292 291 291 291 291 291 291 291 291 291 291 291 291 290 290 289 288 288 287
308 308 308 308 308 307 307 306 304 303 302 301 300 297 296 295 295 295 294 293 293 293 292 292 291 291 291 291 291 291 290 290 290 291 291 290 290 289 289 288 288 287
308 308 308 308 308 307 306 305 304 303 302 301 300 298 296 295 295 295 294 294 293 292 292 291 291 290 290 290 290 290 290 290 290 290 290 290 290 289 288 288 287 287
308 308 308 307 306 306 305 304 303 303 302 301 300 299 297 296 295 294 294 294 293 292 291 291 290 290 290 290 290 290 290 290 290 290 290 290 289 289 288 288 287 287
308 307 306 305 305 304 303 303 302 301 301 300 299 299 298 296 294 294 293 293 293 292 291 291 290 290 290 290 290 289 289 289 289 289 289 289 289 288 288 287 287 286
307 306 305 304 304 304 303 302 301 300 300 299 299 298 297 296 294 293 293 293 293 292 291 290 290 290 289 289 289 289 289 289 289 289 289 289 288 288 287 287 287 286
306 305 305 304 303 303 302 302 301 299 299 298 298 297 297 295 294 293 293 292 292 292 291 290 290 289 289 289 288 288 288 288 288 288 288 288 288 287 287 287 286 286
305 304 304 304 303 302 301 301 300 299 298 298 297 297 296 295 294 293 292 292 292 291 291 290 290 289 289 288 288 287 287 287 288 288 288 288 287 287 287 287 286 286
303 303 303 303 302 302 301 300 299 298 297 297 297 296 296 295 294 293 292 291 291 291 291 290 289 289 288 288 287 287 287 287 287 288 288 287 287 287 287 287 287 287
302 302 302 302 301 300 300 299 298 298 297 297 296 296 295 294 293 292 292 291 291 291 290 290 289 289 288 287 287 287 287 287 287 287 287 287 287 287 287 287 287 287
302 302 301 301 300 299 298 298 297 297 296 296 296 295 295 294 293 292 292 291 291 291 290 290 289 288 287 287 287 286 286 287 287 287 287 287 287 287 288 288 287 286
302 301 301 300 299 298 298 297 297 296 296 296 295 294 294 293 292 292 292 291 291 291 290 289 288 288 287 286 286 286 286 286 286 286 287 287 287 288 288 287 286 285
301 301 300 299 299 298 298 297 297 296 295 295 294 294 293 293 292 292 291 291 291 291 290 289 288 287 287 286 286 286 286 286 286 286 287 287 288 288 287 286 285 284
300 300 299 299 299 299 298 297 296 296 295 295 294 294 293 293 292 291 291 291 290 290 290 289 288 287 286 286 286 286 286 286 286 286 287 287 287 287 286 284 284 283
298 298 298 298 298 298 297 296 296 295 295 294 294 293 293 292 291 291 290 290 290 290 289 288 287 286 286 286 286 285 285 285 286 286 286 286 286 286 284 284 283 283
297 297 296 296 296 295 295 294 294 294 294 294 293 292 292 291 290 290 290 289 289 289 288 287 286 286 285 285 285 285 285 286 287 287 286 286 285 284 283 283 283 283

ECMWFNIL_850_thetae_030.txt.gz
Theta_e
309 309 309 309 309 309 308 308 308 308 308 308 308 308 307 307 306 306 305 305 304 303 302 301 299 298 297 296 295 295 294 294 294 294 294 294 295 295 295 295 295 295
309 308 308 308 308 309 308 308 308 308 308 308 308 307 307 306 306 305 305 305 304 304 303 302 301 299 297 296 295 295 294 294 294 294 294 294 294 294 295 295 295 295
308 308 308 308 308 309 308 308 308 308 308 307 307 307 306 306 305 305 305 304 304 304 303 302 302 300 298 297 295 295 294 294 294 294 294 294 294 294 294 294 294 295
308 308 308 307 307 307 307 307 308 308 308 308 308 308 307 306 305 305 304 304 304 303 303 302 302 301 300 298 296 295 294 294 294 294 293 293 294 294 294 294 294 294
308 307 308 307 307 307 306 307 307 307 308 308 308 308 307 307 306 305 305 304 304 303 303 302 301 301 300 299 297 296 294 294 293 293 293 293 293 293 293 293 293 294
308 307 307 307 306 306 306 306 306 307 307 307 307 308 307 307 307 307 306 305 304 304 303 302 302 301 300 299 298 296 295 294 293 293 293 293 293 293 293 293 293 293
307 307 307 306 306 306 306 306 306 306 306 306 306 306 307 307 307 307 306 305 304 304 303 303 302 301 300 300 298 297 296 294 293 293 292 292 292 292 293 293 293 293
306 306 306 305 305 305 306 306 305 305 305 305 305 305 305 305 306 307 306 306 304 303 303 303 302 301 301 300 299 298 297 295 294 293 292 292 292 292 292 292 292 292
304 304 304 304 304 304 305 305 305 305 304 305 305 305 304 304 304 305 306 306 305 303 303 302 302 302 301 300 300 299 298 296 295 294 292 292 292 292 292 292 292 292
304 304 304 304 304 304 305 305 305 305 305 305 304 304 304 304 303 302 303 304 304 304 303 302 302 302 302 301 300 299 298 297 296 295 293 292 292 292 292 292 292 292
305 304 304 305 305 305 306 305 305 305 306 306 304 303 303 303 303 302 301 302 303 304 305 304 303 302 302 301 301 299 298 297 296 295 294 293 292 292 292 291 292 292
304 304 304 305 305 305 305 305 305 305 305 305 304 303 303 303 303 303 302 301 301 303 304 304 303 302 302 302 301 300 299 298 297 296 295 294 292 292 291 291 291 291
304 304 304 304 305 305 304 304 304 304 304 303 303 303 302 302 302 302 302 301 301 301 302 303 303 302 301 301 301 300 299 298 297 297 296 295 293 292 291 291 291 291
304 304 302 302 302 302 303 302 302 302 302 302 302 301 301 301 301 301 301 301 300 300 300 300 301 301 300 300 299 299 299 298 298 297 296 295 294 292 291 291 291 291
302 302 301 300 299 300 300 300 300 301 301 301 301 301 300 300 300 299 299 299 298 298 299 299 299 300 300 300 299 299 299 299 298 297 296 296 294 293 291 291 291 290
299 299 299 298 297 297 298 298 298 299 299 299 300 300 300 299 299 298 298 297 297 297 297 298 298 299 299 299 299 298 299 298 298 297 297 296 295 293 292 291 290 290
299 299 298 298 296 296 296 296 297 297 298 298 298 298 298 298 298 298 298 297 296 296 296 297 297 298 298 298 297 297 297 297 297 297 296 295 294 294 293 291 290 290
298 299 298 298 297 296 295 294 295 295 296 296 297 297 297 297 297 297 297 297 296 295 295 296 297 297 297 296 296 296 296 296 296 296 296 295 294 294 293 292 290 290
296 296 297 298 298 297 295 294 293 294 294 295 295 295 296 296 296 296 296 296 296 295 295 295 296 296 296 295 295 295 295 295 295 295 295 295 294 294 293 292 290 290
294 295 295 296 297 297 297 295 294 293 293 293 294 294 294 295 295 295 295 295 295 295 295 295 295 295 295 295 294 294 294 294 294 295 295 294 293 292 292 291 291 290
292 293 294 295 296 297 297 297 296 294 292 292 293 293 293 294 294 294 294 294 294 294 294 294 294 295 294 294 294 293 294 294 293 294 294 293 292 291 291 290 290 289
290 291 292 293 294 295 296 297 297 296 294 292 291 292 292 292 293 293 293 293 294 293 293 294 294 294 293 293 293 292 293 293 292 292 292 292 291 290 290 289 289 289
289 289 290 291 292 293 295 296 297 297 296 293 291 291 291 291 292 292 292 293 293 293 293 293 293 293 293 292 292 292 292 292 292 292 291 291 291 290 289 289 288 288
288 288 289 289 290 291 292 294 295 296 297 295 292 291 290 290 291 291 292 292 292 292 292 292 292 292 292 292 292 291 291 291 291 291 291 290 290 289 288 288 288 287
287 288 288 288 289 289 290 291 293 295 296 295 294 292 291 290 290 290 290 291 291 291 291 291 291 291 291 291 291 291 290 290 290 290 290 290 289 288 288 287 287 286
286 286 287 287 287 288 289 290 291 292 294 295 295 293 291 290 290 290 290 290 290 290 290 290 290 290 290 290 290 290 289 289 289 289 289 289 289 288 287 287 286 286

ECMWFNIL_850_thetae_033.txt.gz
Theta_e
306 306 306 306 306 306 306 305 306 305 305 305 306 306 306 307 307 307 307 307 307 306 306 305 305 304 303 302 301 300 299 298 297 296 295 295 294 294 294 295 295 295
304 304 304 305 305 306 305 305 305 305 305 305 305 305 305 305 306 306 306 306 306 306 306 306 305 305 304 303 302 301 300 299 298 297 296 295 294 294 294 295 295 295
303 303 303 303 304 304 304 304 304 304 305 305 305 305 305 305 305 305 305 305 305 305 305 305 305 304 304 303 302 302 301 300 299 298 297 296 295 294 294 294 294 294
302 302 302 302 303 303 303 303 304 304 304 304 305 305 305 305 304 304 304 304 304 304 304 304 304 304 303 303 302 302 301 300 299 298 297 296 295 294 294 294 294 294
301 301 301 302 302 302 303 303 304 304 304 304 304 304 304 304 304 304 304 304 304 304 304 303 303 303 303 302 302 301 301 300 299 298 297 296 295 295 294 294 293 293
302 300 300 300 301 301 302 303 303 303 304 303 304 303 303 303 303 304 304 304 304 304 303 303 303 303 302 302 301 301 301 300 299 299 298 297 296 295 294 293 293 293
303 302 301 299 299 299 300 301 302 302 303 303 303 303 303 303 303 303 303 303 303 303 303 303 303 303 302 302 301 301 301 300 300 299 299 298 296 295 294 294 293 293
303 304 303 302 301 300 300 300 300 301 301 301 302 302 302 302 302 302 302 302 302 302 302 302 302 302 302 302 302 301 301 300 300 300 299 298 297 296 295 294 293 293
302 303 303 303 303 303 302 301 300 300 300 300 301 301 301 301 301 301 301 301 301 301 301 301 301 301 301 302 302 302 301 300 300 300 300 299 298 297 296 295 293 293
302 302 301 302 302 302 302 302 301 300 299 299 299 299 299 300 300 300 300 300 300 301 301 300 300 300 300 300 301 302 301 301 300 300 300 299 299 298 297 296 294 293
301 301 301 300 301 301 301 301 301 300 299 298 298 298 298 298 298 299 299 299 299 300 300 300 300 300 299 299 300 300 301 301 300 300 299 299 299 299 298 297 296 294
300 300 300 300 300 300 299 299 299 300 300 299 298 297 297 297 297 297 298 298 299 299 299 299 299 299 299 299 299 299 299 300 300 300 299 299 299 299 299 298 297 296
297 298 298 299 299 299 299 299 298 298 299 299 299 298 297 296 296 296 296 297 298 298 298 298 298 298 299 299 298 298 298 299 299 300 299 299 299 298 298 298 298 297
293 294 295 296 297 297 298 298 298 298 298 298 298 298 297 296 295 295 295 296 296 297 297 297 297 297 298 298 298 298 297 297 298 299 299 299 298 298 297 297 297 297
292 292 293 294 295 296 296 297 297 298 298 297 297 297 297 297 295 295 294 294 295 295 295 296 296 296 297 297 297 297 297 297 297 297 298 298 298 298 297 297 296 296
291 292 292 293 293 294 295 295 296 296 297 297 297 297 296 296 296 295 294 293 294 294 294 294 295 295 295 295 296 296 296 296 296 296 297 297 298 298 297 297 296 295
290 291 292 292 293 293 293 294 294 295 296 296 297 297 297 296 295 295 294 293 293 293 293 294 294 294 294 294 295 295 295 295 295 295 295 296 297 297 297 297 296 295
289 290 291 291 292 293 293 293 292 293 294 295 296 297 297 297 296 295 294 294 293 292 293 293 293 293 293 294 294 294 294 294 294 294 294 295 295 296 296 296 296 295
288 288 288 289 290 291 292 292 292 292 292 293 294 295 296 297 297 296 294 293 293 292 292 292 292 293 292 293 293 293 293 293 293 293 293 294 294 295 295 295 295 295
287 287 287 287 288 288 289 290 291 292 291 291 292 293 294 295 296 296 295 293 292 292 292 292 292 292 292 292 292 292 292 292 292 292 292 293 293 293 294 294 294 294
286 286 286 286 286 287 287 288 289 290 290 291 291 291 292 293 294 295 295 294 292 291 292 292 292 291 291 291 291 291 291 291 291 291 292 292 292 292 293 293 293 293
286 286 286 286 286 286 286 286 287 287 288 289 290 290 291 291 292 293 294 294 293 291 291 291 291 291 291 291 291 290 290 290 290 290 291 291 291 291 291 292 292 292
285 285 285 286 286 286 286 286 286 286 287 287 288 289 290 290 290 291 291 293 293 293 291 291 291 291 291 291 290 290 290 289 289 289 290 290 291 291 291 291 291 291
285 285 285 285 285 285 285 285 285 286 286 286 286 287 288 289 289 290 290 291 292 293 293 292 290 290 290 290 290 290 289 289 289 289 289 290 290 290 290 290 290 290
285 285 285 285 285 285 285 285 285 285 285 285 285 285 286 287 287 289 290 290 290 291 292 293 292 290 289 289 289 289 289 289 288 288 288 289 289 289 289 289 289 289
285 285 285 285 285 285 285 285 285 285 285 285 285 285 285 285 286 287 288 289 290 290 291 292 293 292 290 288 288 289 289 289 288 288 288 288 288 288 288 289 289 289

ECMWFNIL_850_thetae_036.txt.gz
Theta_e
304 303 303 302 302 301 301 302 302 302 302 302 303 303 303 303 303 304 303 303 303 304 303 303 303 302 300 300 299 298 298 298 298 298 298 297 297 296 296 296 296 296
304 304 304 303 303 302 301 301 301 301 302 302 302 302 302 303 303 303 303 303 303 303 303 303 303 302 301 300 299 298 298 298 298 298 298 298 297 297 296 296 296 295
305 305 305 305 304 303 302 301 300 300 301 301 301 301 302 302 302 302 302 302 302 302 302 302 302 302 302 301 300 299 298 298 298 299 299 298 298 297 297 296 296 295
304 304 304 304 304 303 303 302 302 301 300 300 301 301 300 300 301 301 301 301 302 302 302 302 302 302 302 302 301 301 300 299 299 299 299 299 298 298 297 297 296 295
303 302 302 303 304 303 303 303 303 303 301 301 300 300 300 300 299 299 300 300 300 301 301 301 302 302 302 302 301 301 301 301 300 300 300 299 299 298 298 297 296 295
303 302 302 303 303 303 302 302 303 303 303 302 302 301 300 300 299 299 299 299 299 300 300 300 301 301 301 301 301 301 301 301 301 301 301 300 300 299 299 298 297 296
301 302 302 302 302 302 302 302 302 302 303 303 303 303 302 300 299 299 299 299 299 298 299 299 299 300 300 300 300 301 301 301 301 301 301 301 301 300 300 299 298 297
299 300 301 301 302 302 302 302 302 301 301 302 302 303 303 302 301 300 299 298 298 298 298 298 298 298 299 299 299 300 300 300 300 300 300 300 300 300 300 300 299 298
296 296 298 299 300 301 301 302 302 301 301 300 300 300 301 301 302 301 300 299 298 297 297 297 297 297 297 298 298 299 299 299 300 300 300 300 300 300 300 300 300 299
295 295 295 296 297 298 299 300 301 301 301 300 300 299 299 299 300 301 301 300 299 298 297 297 297 297 297 297 298 298 298 298 299 299 300 300 300 300 300 300 300 300
295 295 296 296 295 295 296 297 298 299 300 300 300 300 299 298 298 299 299 300 299 299 297 297 297 296 296 296 297 297 297 297 298 298 299 299 299 300 300 300 300 300
294 295 295 295 295 295 295 295 295 296 297 298 299 299 299 299 298 297 297 298 298 298 297 297 296 296 296 295 295 296 296 296 296 297 297 298 298 299 299 299 299 300
292 292 292 292 292 293 294 294 294 294 294 295 296 297 298 299 299 298 297 297 297 297 297 297 296 295 295 295 294 294 295 295 296 296 296 296 297 297 298 298 299 299
289 290 290 290 290 290 291 292 293 293 293 294 294 294 295 297 297 298 297 297 296 295 296 296 296 295 294 294 294 294 294 294 294 295 295 295 296 296 296 297 297 298
288 288 288 289 289 289 289 290 290 291 292 292 293 293 293 294 295 297 297 297 296 295 295 295 295 295 294 293 293 293 293 293 293 294 294 294 295 295 296 296 297 297
288 288 288 287 288 288 288 288 288 289 289 290 291 291 292 292 293 294 295 296 297 297 296 294 294 294 294 293 292 292 292 292 292 293 293 293 293 294 294 295 296 296
287 287 287 287 287 287 287 287 287 287 288 288 288 289 290 291 292 292 293 294 295 296 296 296 295 294 293 292 292 291 291 291 292 292 292 292 292 293 293 294 294 295
287 287 287 287 287 287 287 287 286 286 287 287 287 287 288 288 289 290 291 292 293 294 295 296 296 295 293 292 292 291 291 291 291 291 291 291 292 292 292 292 293 293
287 287 287 287 287 287 287 286 286 286 286 286 286 286 287 287 287 288 288 289 290 291 292 293 294 295 294 293 292 291 291 290 290 290 290 291 291 291 292 292 292 292
286 286 286 286 286 286 286 286 286 286 286 286 286 286 286 286 286 286 287 287 288 288 289 291 292 293 293 294 293 292 291 290 290 290 290 290 290 291 291 291 291 292
286 286 286 286 286 286 286 286 286 286 286 286 286 286 286 286 286 285 286 286 286 286 287 288 290 290 291 292 293 293 291 290 290 290 290 290 290 290 290 290 291 291
286 286 286 286 286 286 286 286 286 286 286 286 286 286 286 286 286 285 285 285 285 285 285 286 287 288 289 290 291 292 292 290 290 290 290 290 289 289 290 290 290 290
285 285 285 286 286 286 286 286 285 286 286 286 285 285 286 286 286 286 286 286 285 285 285 285 286 286 286 287 289 290 291 291 290 290 289 290 290 289 289 289 289 290
284 284 284 284 285 285 285 285 285 285 285 285 285 285 285 286 286 286 286 286 286 286 286 285 285 285 285 286 286 288 289 290 291 290 289 289 290 289 289 288 289 289
282 282 283 283 283 284 284 284 284 285 285 285 284 284 284 285 285 285 286 286 286 286 286 286 286 286 285 285 285 286 287 288 290 290 289 289 289 289 289 288 288 289
281 281 281 281 282 282 282 283 283 284 284 284 284 284 284 284 284 284 285 285 286 286 286 286 286 286 286 285 285 285 285 286 288 290 290 290 289 288 288 288 288 288

ECMWFNIL_850_thetae_042.txt.gz
Theta_e
304 303 303 303 303 303 303 303 304 304 304 303 302 301 301 300 300 300 300 300 300 300 300 300 300 301 301 301 300 300 299 299 299 299 299 299 298 298 297 297 296 295
303 303 302 302 301 301 301 302 302 303 303 303 303 302 302 301 300 300 299 300 300 300 301 300 300 300 300 300 300 300 299 299 299 299 298 298 298 298 298 297 296 296
301 301 301 301 301 300 300 300 300 300 301 302 302 302 302 301 301 300 300 299 299 300 300 300 300 300 299 299 299 299 299 299 299 299 298 298 298 298 297 297 297 296
298 299 299 299 299 299 299 299 299 299 299 299 300 300 301 301 301 301 301 300 300 300 300 300 300 300 299 299 299 299 299 298 298 298 298 298 298 297 297 297 297 297
295 295 296 296 297 297 298 298 298 298 298 298 298 298 299 299 300 300 301 301 301 301 300 300 300 300 299 299 298 298 299 299 298 298 297 297 297 297 297 297 297 297
292 292 292 293 293 294 295 295 296 297 297 297 297 297 297 297 298 298 299 299 300 300 300 300 300 300 299 299 298 298 298 298 298 298 298 297 297 297 297 297 297 297
290 290 290 290 291 291 291 292 292 293 294 294 295 295 295 295 295 296 297 297 298 298 299 300 300 300 300 299 298 298 297 297 297 297 297 298 297 297 297 296 296 297
289 289 289 289 289 289 289 290 290 290 291 291 292 292 293 293 293 293 293 294 295 296 297 298 298 299 299 299 299 298 297 297 296 296 296 297 297 298 298 297 296 296
289 288 288 288 288 288 288 288 288 288 288 289 289 290 290 291 291 291 291 291 292 292 293 295 295 296 297 298 298 298 298 297 296 295 295 296 296 296 297 297 297 297
288 288 288 288 288 288 288 288 288 288 288 287 288 288 288 289 289 289 290 290 290 290 291 291 292 293 294 295 296 297 297 297 296 295 294 294 294 295 295 296 296 297
288 288 288 288 288 288 288 288 288 288 287 287 287 287 287 287 287 288 288 288 289 289 289 289 290 290 291 292 293 294 295 296 297 296 295 294 294 294 294 295 295 296
288 288 288 288 288 288 288 288 288 288 288 288 287 287 287 287 287 287 287 287 287 288 288 288 288 289 289 290 290 291 292 294 295 296 296 296 295 295 294 294 294 295
289 288 288 288 288 288 288 288 288 288 288 288 288 287 287 287 287 287 287 287 287 287 287 287 287 288 288 288 288 289 290 291 292 293 294 295 296 295 295 294 293 293
289 289 289 289 289 289 288 288 288 288 288 288 288 288 288 287 287 287 287 287 287 287 287 287 287 287 287 287 287 287 287 288 289 290 291 292 294 295 295 295 294 293
289 289 289 289 289 289 289 289 289 289 288 288 288 288 288 288 288 287 287 287 287 287 287 287 287 287 287 287 286 286 286 286 287 287 288 289 290 291 293 294 294 294
289 289 289 289 289 289 289 288 288 288 288 288 288 288 288 288 288 288 288 287 287 287 287 287 287 287 287 287 287 287 286 286 286 286 286 287 287 288 289 291 292 293
289 289 289 289 289 289 288 288 288 288 288 288 287 287 287 287 287 287 287 287 287 287 287 287 287 287 287 287 287 287 287 286 286 286 286 286 286 286 287 288 289 290
288 288 289 289 289 288 288 288 288 287 287 287 286 286 286 286 286 286 286 286 286 287 287 287 287 287 287 287 287 287 287 287 287 286 286 286 286 286 286 286 286 287
286 286 287 287 287 287 287 287 286 286 286 285 285 285 285 285 285 285 285 285 285 285 285 286 286 287 287 287 287 287 287 287 287 287 286 286 286 286 286 286 286 286
285 284 285 285 285 285 284 284 284 284 284 283 283 283 283 283 283 284 284 285 285 285 284 284 285 285 286 286 286 286 287 287 286 286 287 286 286 286 286 286 286 286
283 282 282 282 282 282 282 282 282 282 282 282 282 282 282 282 282 282 283 283 283 283 284 284 284 285 285 285 285 285 285 286 286 286 286 287 286 286 286 286 286 286
281 281 281 281 280 280 280 280 280 280 280 280 280 280 280 280 280 280 281 281 281 282 282 282 283 284 284 284 284 284 284 284 284 285 285 286 286 286 286 286 286 286
280 280 279 279 279 279 279 279 279 279 279 279 278 278 279 279 279 279 279 279 280 280 280 281 282 283 283 284 284 284 283 283 283 284 284 285 285 286 286 286 286 286
279 278 278 278 278 277 277 277 277 277 277 277 277 277 277 277 277 277 277 278 278 278 279 279 280 281 282 282 282 283 282 282 282 283 283 283 284 285 286 286 286 286
278 277 277 276 276 276 276 276 276 276 276 276 276 276 276 276 276 275 275 276 276 276 277 277 278 279 280 280 280 281 281 280 280 281 282 282 283 283 284 285 285 286
277 276 276 276 276 276 276 275 275 275 275 275 274 274 274 274 274 273 273 273 274 274 274 275 275 276 277 278 278 278 278 278 279 279 280 280 281 282 282 283 284 285

ECMWFNIL_850_thetae_048.txt.gz
Theta_e
295 294 294 294 294 294 294 294 294 294 294 293 293 293 293 293 294 294 295 296 296 297 297 298 298 298 299 299 298 298 298 298 298 299 298 299 299 299 299 299 300 300
293 292 292 292 292 292 291 291 291 291 291 290 290 290 290 290 291 291 292 292 293 293 294 295 295 296 296 296 297 298 298 298 298 298 297 298 298 298 298 298 298 299
291 291 291 291 291 290 290 290 290 290 290 289 289 289 289 289 289 289 290 290 290 290 291 291 292 292 293 293 293 294 295 296 297 297 297 297 297 297 297 297 298 298
290 290 290 290 290 290 289 289 289 289 289 289 289 289 289 289 289 289 289 289 289 289 289 289 290 290 290 291 291 291 291 292 292 294 295 296 296 296 296 296 296 297
290 290 289 289 289 289 289 289 289 289 289 289 289 289 289 289 289 289 289 289 289 289 289 289 289 289 289 289 289 289 290 289 290 290 291 292 293 294 295 295 296 296
290 290 290 290 290 290 290 290 290 289 289 289 289 289 289 289 289 289 289 289 289 289 289 289 289 289 289 289 289 289 289 289 289 289 289 289 289 290 290 292 293 294
290 290 290 290 290 289 289 289 289 289 289 289 289 289 289 289 289 289 289 289 289 289 289 289 289 289 289 289 289 289 288 288 288 288 288 288 288 289 289 288 289 290
290 289 289 289 289 289 289 289 289 289 289 289 289 289 289 288 288 288 288 288 289 289 289 289 289 289 289 289 289 289 289 289 289 288 288 288 288 288 288 288 288 288
289 289 289 289 289 289 288 288 288 288 288 288 288 288 288 287 287 287 287 287 288 288 288 288 288 288 288 288 288 288 288 288 288 288 288 288 288 288 288 288 288 288
289 289 289 289 288 288 288 288 288 288 288 287 287 287 287 286 287 287 287 287 287 287 287 287 287 287 287 287 287 287 287 287 287 287 287 288 288 288 288 288 288 288
289 289 289 289 288 288 288 288 287 287 287 287 286 286 286 286 286 286 286 286 286 286 286 286 287 287 287 287 287 287 287 287 287 287 287 287 287 287 287 287 287 287
289 289 289 289 288 288 288 287 287 287 286 286 286 286 286 286 286 286 286 286 286 286 286 286 286 286 286 286 286 286 286 286 286 286 286 286 286 286 286 286 286 287
289 289 289 288 288 288 287 287 286 286 286 286 286 286 286 286 285 286 286 285 286 286 285 285 285 285 285 285 285 285 285 285 285 285 286 286 286 286 286 286 286 286
289 289 289 288 288 287 287 286 286 285 285 285 285 285 285 285 285 285 285 285 285 285 285 285 285 285 285 284 284 284 283 283 283 284 284 284 285 285 285 285 286 286
289 289 288 288 287 287 286 286 285 285 285 285 285 285 284 285 284 284 284 284 284 284 284 284 284 284 284 284 283 283 283 282 282 282 282 283 283 284 284 285 285 285
288 288 288 287 286 286 285 285 285 285 284 284 284 284 284 284 284 284 284 284 284 284 284 284 284 284 283 282 282 281 281 281 281 281 281 281 281 282 282 283 284 284
287 287 286 286 285 285 285 284 284 284 284 284 284 284 284 284 284 284 284 283 283 283 283 283 283 282 282 281 281 280 279 279 279 280 280 281 281 281 282 282 282 282
285 285 284 284 284 284 284 284 284 284 284 284 284 284 284 284 284 283 283 282 282 282 282 282 282 281 280 279 279 279 278 277 278 278 279 280 280 281 281 281 281 281
284 284 284 283 283 283 283 283 283 283 283 283 284 284 283 283 283 283 283 282 281 281 282 282 281 280 279 278 277 276 275 275 276 277 277 278 279 279 280 280 281 280
283 283 283 283 283 282 283 283 283 283 283 283 283 283 283 283 282 282 282 282 281 281 281 281 280 279 278 277 275 274 274 274 274 275 276 276 277 278 278 279 279 279
283 283 282 282 282 282 282 282 282 282 282 282 282 282 282 282 282 281 281 281 280 279 279 279 278 276 275 275 274 274 274 273 273 274 274 275 275 276 276 276 277 277
282 282 282 282 282 282 282 282 282 282 282 281 281 281 281 281 281 280 279 279 278 277 277 277 276 274 273 273 272 272 272 272 272 272 273 274 274 274 274 275 275 275
281 281 282 282 282 282 282 282 281 281 281 280 281 281 281 280 279 279 277 276 276 275 275 275 275 273 272 272 272 271 271 270 270 271 271 272 272 273 273 273 273 273
281 281 281 281 281 281 281 281 281 280 280 280 280 280 280 278 278 277 276 275 274 274 273 273 273 272 271 271 271 271 270 269 269 269 269 269 270 270 271 271 271 272
280 280 280 280 280 280 280 280 280 280 279 279 278 278 278 277 276 276 275 274 273 273 272 272 272 272 271 271 271 270 269 268 268 268 268 268 268 269 269 269 270 271
280 280 279 279 279 279 279 279 279 279 278 278 278 277 276 276 275 274 274 273 272 272 272 271 271 271 271 270 270 270 269 268 267 267 268 268 268 268 268 269 269 270